パンスターズ彗星

C/2016 R2 ( PanSTARRS )

English version
Home page
Updated on July 8, 2020

---------------------------------------------------------------------

・ プロフィール

発見日 2016年9月7日
発見光度 19.1等
発見者 Pan-STARRS 1 telescope (Haleakala)

・ 写真集

・ 軌道要素

Epoch 2018 May 2.0 TT = JDT 2458240.5
T 2018 May  9.58377 TT                                  Rudenko
q   2.6023719            (2000.0)            P               Q
z  +0.0013993      Peri.   33.19218     -0.14726367     -0.52443185
 +/-0.0000002      Node    80.56877     +0.61562578     -0.71221378
e   0.9963586      Incl.   58.22382     +0.77415652     +0.46660772
From 4113 observations 2016 Aug. 30-2020 Mar. 19, mean residual 0".5.

・ 星図

・ 光度変化

        m1 = 3.5 + 5 logΔ + 13.0 log r(t + 40)

---------------------------------------------------------------------

軌道要素はM.P.E.C. 2020-G65に掲載されたものです。
星図はステラナビゲータ Ver.10 (アストロアーツ) で作成したものです。
光度グラフはComet for Windowsで作成したものです。

---------------------------------------------------------------------

Copyright(C) Seiichi Yoshida (comet@aerith.net). All rights reserved.